Regional Weather Roundup
Issued by NWS

Home | Current Version | Previous Version | Text Only | Print | Product List | Glossary On
Versions: 1 2 3 4 5 6 7 8 9 10 11 12 13 14 15 16 17 18 19 20 21 22 23 24 25 26 27 28 29 30 31 32 33 34 35 36 37 38 39 40 41 42 43 44 45 46 47 48 49 50
000
ASUS43 KBIS 182320
RWRND

NORTH DAKOTA REGIONAL WEATHER ROUNDUP
NATIONAL WEATHER SERVICE BISMARCK ND
500 PM CST THU DEC 18 2014

NOTE: "FAIR" INDICATES FEW OR NO CLOUDS BELOW 12,000 FEET WITH NO
SIGNIFICANT WEATHER AND/OR OBSTRUCTIONS TO VISIBILITY.


NDZ001>003-009>011-017-190000-
NORTHWEST NORTH DAKOTA

CITY           SKY/WX    TMP DP  RH WIND       PRES   REMARKS
WILLISTON      CLOUDY    28  24  85 SW7       29.95R
MINOT          CLOUDY    23  18  81 SE6       29.99S WCI  16
MINOT AFB      CLOUDY    22  22  98 SE6       29.99S WCI  15
$$

NDZ018>021-031>035-040>046-190000-
SOUTHWEST NORTH DAKOTA

CITY           SKY/WX    TMP DP  RH WIND       PRES   REMARKS
BISMARCK       CLOUDY    27  23  85 S6        30.02F
DICKINSON      CLEAR     30  24  78 CALM      29.92S
GARRISON         N/A     25  22  88 CALM      29.98S
HETTINGER ARPT CLEAR     29  25  85 S5        29.96R
$$

NDZ004>008-012>016-024-026-027-054-190000-
NORTHEAST NORTH DAKOTA

CITY           SKY/WX    TMP DP  RH WIND       PRES   REMARKS
GRAND FORKS    CLOUDY    19  14  81 S12       30.18R WCI   7
GRND FRKS AFB  CLOUDY    18  17  95 S13       30.17S WCI   5
DEVILS LAKE    CLOUDY    19  12  73 SE14      30.05F WCI   6
$$

NDZ022-023-025-028>030-036>039-047>053-190000-
SOUTHEAST NORTH DAKOTA

CITY           SKY/WX    TMP DP  RH WIND       PRES   REMARKS
FARGO          CLOUDY    20  14  77 SE10      30.19S WCI   9
JAMESTOWN      CLOUDY    22  19  89 S12       30.08S WCI  10
$$



USA.gov is the U.S. government's official web portal to all federal, state and local government web resources and services.